Time,TemperatureF,DewpointF,PressureIn,WindDirection,WindDirectionDegrees,WindSpeedMPH,WindSpeedGustMPH,Humidity,HourlyPrecipIn,Conditions,Clouds,dailyrainin,SolarRadiationWatts/m^2,SoftwareType,DateUTC
2013-07-06 00:01:00,78.2,73.3,30.27,SSW,213,3.0,3.0,85,0.00,,,0.00,0,Wunderground v.1.15,2013-07-06 04:01:00,
2013-07-06 00:02:00,78.2,73.3,30.27,SSW,211,2.0,3.0,85,0.00,,,0.00,0,Wunderground v.1.15,2013-07-06 04:02:00,
2013-07-06 00:04:00,78.1,73.2,30.27,SSW,203,2.0,6.0,85,0.00,,,0.00,0,Wunderground v.1.15,2013-07-06 04:04:00,
2013-07-06 00:05:00,78.1,73.2,30.27,SW,221,4.0,6.0,85,0.00,,,0.00,0,Wunderground v.1.15,2013-07-06 04:05:00,
2013-07-06 00:08:00,78.1,73.6,30.27,South,185,3.0,6.0,86,0.00,,,0.00,0,Wunderground v.1.15,2013-07-06 04:08:00,
2013-07-06 00:13:00,78.0,73.5,30.27,South,177,2.0,3.0,86,0.00,,,0.00,0,Wunderground v.1.15,2013-07-06 04:13:00,
2013-07-06 00:19:00,77.7,73.2,30.27,SSW,205,1.0,5.0,86,0.00,,,0.00,0,Wunderground v.1.15,2013-07-06 04:19:00,
2013-07-06 00:24:00,77.6,73.4,30.27,SSW,192,0.0,4.0,87,0.00,,,0.00,0,Wunderground v.1.15,2013-07-06 04:24:00,
2013-07-06 00:30:00,77.4,73.2,30.27,SSW,198,0.0,2.0,87,0.00,,,0.00,0,Wunderground v.1.15,2013-07-06 04:30:00,
2013-07-06 00:35:00,77.4,73.2,30.27,SSW,211,4.0,4.0,87,0.00,,,0.00,0,Wunderground v.1.15,2013-07-06 04:35:00,
2013-07-06 00:41:00,77.3,73.5,30.27,South,188,1.0,3.0,88,0.00,,,0.00,0,Wunderground v.1.15,2013-07-06 04:41:00,
2013-07-06 00:46:00,77.2,73.4,30.26,South,174,2.0,4.0,88,0.00,,,0.00,0,Wunderground v.1.15,2013-07-06 04:46:00,
2013-07-06 00:52:00,77.2,73.4,30.27,SSW,199,2.0,5.0,88,0.00,,,0.00,0,Wunderground v.1.15,2013-07-06 04:52:00,
2013-07-06 00:58:00,77.1,73.3,30.27,SSW,194,1.0,6.0,88,0.00,,,0.00,0,Wunderground v.1.15,2013-07-06 04:58:00,
2013-07-06 01:03:00,77.0,73.2,30.26,SSW,204,4.0,4.0,88,0.00,,,0.00,0,Wunderground v.1.15,2013-07-06 05:03:00,
2013-07-06 01:09:00,76.9,73.4,30.26,SSW,192,1.0,7.0,89,0.00,,,0.00,0,Wunderground v.1.15,2013-07-06 05:09:00,
2013-07-06 01:15:00,76.8,73.3,30.26,South,190,0.0,4.0,89,0.00,,,0.00,0,Wunderground v.1.15,2013-07-06 05:15:00,
2013-07-06 01:20:00,76.7,73.2,30.26,South,173,2.0,4.0,89,0.00,,,0.00,0,Wunderground v.1.15,2013-07-06 05:20:00,
2013-07-06 01:26:00,76.7,73.2,30.26,South,173,2.0,5.0,89,0.00,,,0.00,0,Wunderground v.1.15,2013-07-06 05:26:00,
2013-07-06 01:31:00,76.7,73.2,30.26,SSW,195,2.0,3.0,89,0.00,,,0.00,0,Wunderground v.1.15,2013-07-06 05:31:00,
2013-07-06 01:37:00,76.7,73.2,30.26,SSW,204,3.0,3.0,89,0.00,,,0.00,0,Wunderground v.1.15,2013-07-06 05:37:00,
2013-07-06 01:43:00,76.5,73.0,30.26,SSW,200,3.0,3.0,89,0.00,,,0.00,0,Wunderground v.1.15,2013-07-06 05:43:00,
2013-07-06 01:48:00,76.4,72.9,30.26,SSW,196,3.0,5.0,89,0.00,,,0.00,0,Wunderground v.1.15,2013-07-06 05:48:00,
2013-07-06 01:54:00,76.4,72.9,30.25,SSW,201,2.0,4.0,89,0.00,,,0.00,0,Wunderground v.1.15,2013-07-06 05:54:00,
2013-07-06 01:59:00,76.3,72.8,30.26,SSW,213,0.0,4.0,89,0.00,,,0.00,0,Wunderground v.1.15,2013-07-06 05:59:00,
2013-07-06 02:04:00,76.0,72.9,30.26,SW,222,0.0,3.0,90,0.00,,,0.00,0,Wunderground v.1.15,2013-07-06 06:04:00,
2013-07-06 02:09:00,75.8,72.7,30.26,SSW,192,3.0,3.0,90,0.00,,,0.00,0,Wunderground v.1.15,2013-07-06 06:09:00,
2013-07-06 02:14:00,75.8,72.7,30.25,SSW,192,2.0,4.0,90,0.00,,,0.00,0,Wunderground v.1.15,2013-07-06 06:14:00,
2013-07-06 02:19:00,75.7,72.6,30.25,SSW,206,2.0,5.0,90,0.00,,,0.00,0,Wunderground v.1.15,2013-07-06 06:19:00,
2013-07-06 02:24:00,75.5,72.7,30.25,SSW,206,0.0,3.0,91,0.00,,,0.00,0,Wunderground v.1.15,2013-07-06 06:24:00,
2013-07-06 02:29:00,75.3,72.5,30.25,SW,214,1.0,5.0,91,0.00,,,0.00,0,Wunderground v.1.15,2013-07-06 06:29:00,
2013-07-06 02:34:00,75.0,72.5,30.26,SW,214,0.0,1.0,92,0.00,,,0.00,0,Wunderground v.1.15,2013-07-06 06:34:00,
2013-07-06 02:39:00,74.9,72.4,30.26,SW,214,0.0,2.0,92,0.00,,,0.00,0,Wunderground v.1.15,2013-07-06 06:39:00,
2013-07-06 02:44:00,74.8,72.3,30.26,SW,214,0.0,1.0,92,0.00,,,0.00,0,Wunderground v.1.15,2013-07-06 06:44:00,
2013-07-06 02:49:00,74.7,72.2,30.26,SW,214,0.0,1.0,92,0.00,,,0.00,0,Wunderground v.1.15,2013-07-06 06:49:00,
2013-07-06 02:55:00,74.6,72.1,30.26,SW,214,1.0,1.0,92,0.00,,,0.00,0,Wunderground v.1.15,2013-07-06 06:55:00,
2013-07-06 03:01:00,74.4,72.2,30.26,SW,214,0.0,0.0,93,0.00,,,0.00,0,Wunderground v.1.15,2013-07-06 07:01:00,
2013-07-06 03:06:00,74.4,72.2,30.26,SW,214,1.0,3.0,93,0.00,,,0.00,0,Wunderground v.1.15,2013-07-06 07:06:00,
2013-07-06 03:11:00,74.4,72.2,30.26,SW,214,0.0,1.0,93,0.00,,,0.00,0,Wunderground v.1.15,2013-07-06 07:11:00,
2013-07-06 03:16:00,74.2,72.0,30.26,SW,214,1.0,2.0,93,0.00,,,0.00,0,Wunderground v.1.15,2013-07-06 07:16:00,
2013-07-06 03:21:00,74.2,72.4,30.26,SW,214,0.0,1.0,94,0.00,,,0.00,0,Wunderground v.1.15,2013-07-06 07:21:00,
2013-07-06 03:26:00,74.2,72.0,30.26,SW,214,0.0,2.0,93,0.00,,,0.00,0,Wunderground v.1.15,2013-07-06 07:26:00,
2013-07-06 03:31:00,74.2,72.4,30.26,SW,214,0.0,0.0,94,0.00,,,0.00,0,Wunderground v.1.15,2013-07-06 07:31:00,
2013-07-06 03:36:00,74.0,72.2,30.26,SW,214,0.0,1.0,94,0.00,,,0.00,0,Wunderground v.1.15,2013-07-06 07:36:00,
2013-07-06 03:41:00,73.8,72.0,30.26,SW,214,0.0,0.0,94,0.00,,,0.00,0,Wunderground v.1.15,2013-07-06 07:41:00,
2013-07-06 03:46:00,73.9,72.1,30.26,SW,214,0.0,0.0,94,0.00,,,0.00,0,Wunderground v.1.15,2013-07-06 07:46:00,
2013-07-06 03:51:00,74.0,72.2,30.26,SW,214,0.0,0.0,94,0.00,,,0.00,0,Wunderground v.1.15,2013-07-06 07:51:00,
2013-07-06 03:56:00,73.8,72.0,30.26,SW,214,0.0,0.0,94,0.00,,,0.00,0,Wunderground v.1.15,2013-07-06 07:56:00,
2013-07-06 04:02:00,73.8,72.3,30.26,SW,214,0.0,0.0,95,0.00,,,0.00,0,Wunderground v.1.15,2013-07-06 08:02:00,
2013-07-06 04:07:00,73.7,71.9,30.26,SW,214,0.0,0.0,94,0.00,,,0.00,0,Wunderground v.1.15,2013-07-06 08:07:00,
2013-07-06 04:12:00,73.5,72.0,30.26,SW,214,0.0,0.0,95,0.00,,,0.00,0,Wunderground v.1.15,2013-07-06 08:12:00,
2013-07-06 04:17:00,73.3,71.8,30.26,SW,214,0.0,0.0,95,0.00,,,0.00,0,Wunderground v.1.15,2013-07-06 08:17:00,
2013-07-06 04:23:00,73.3,71.8,30.26,SW,214,0.0,0.0,95,0.00,,,0.00,0,Wunderground v.1.15,2013-07-06 08:23:00,
2013-07-06 04:28:00,73.3,71.8,30.26,SW,214,0.0,0.0,95,0.00,,,0.00,0,Wunderground v.1.15,2013-07-06 08:28:00,
2013-07-06 04:33:00,73.0,71.5,30.26,SW,214,0.0,0.0,95,0.00,,,0.00,0,Wunderground v.1.15,2013-07-06 08:33:00,
2013-07-06 04:38:00,72.9,71.4,30.26,SW,214,0.0,0.0,95,0.00,,,0.00,0,Wunderground v.1.15,2013-07-06 08:38:00,
2013-07-06 04:43:00,73.0,71.8,30.26,SW,214,0.0,0.0,96,0.00,,,0.00,0,Wunderground v.1.15,2013-07-06 08:43:00,
2013-07-06 04:48:00,73.1,71.9,30.26,SW,214,0.0,0.0,96,0.00,,,0.00,0,Wunderground v.1.15,2013-07-06 08:48:00,
2013-07-06 04:53:00,73.1,71.9,30.26,SW,214,0.0,0.0,96,0.00,,,0.00,0,Wunderground v.1.15,2013-07-06 08:53:00,
2013-07-06 04:58:00,73.2,72.0,30.26,SW,214,0.0,0.0,96,0.00,,,0.00,0,Wunderground v.1.15,2013-07-06 08:58:00,
2013-07-06 05:03:00,73.3,72.1,30.26,SW,214,0.0,0.0,96,0.00,,,0.00,0,Wunderground v.1.15,2013-07-06 09:03:00,
2013-07-06 05:08:00,73.3,72.1,30.26,SW,214,0.0,0.0,96,0.00,,,0.00,0,Wunderground v.1.15,2013-07-06 09:08:00,
2013-07-06 05:13:00,73.2,72.0,30.26,SW,214,0.0,0.0,96,0.00,,,0.00,0,Wunderground v.1.15,2013-07-06 09:13:00,
2013-07-06 05:18:00,73.1,71.9,30.26,SW,214,0.0,1.0,96,0.00,,,0.00,0,Wunderground v.1.15,2013-07-06 09:18:00,
2013-07-06 05:23:00,73.0,71.8,30.26,SW,214,0.0,0.0,96,0.00,,,0.00,0,Wunderground v.1.15,2013-07-06 09:23:00,
2013-07-06 05:28:00,73.1,71.9,30.26,SW,214,0.0,0.0,96,0.00,,,0.00,0,Wunderground v.1.15,2013-07-06 09:28:00,
2013-07-06 05:33:00,73.1,71.9,30.26,SW,214,0.0,0.0,96,0.00,,,0.00,0,Wunderground v.1.15,2013-07-06 09:33:00,
2013-07-06 05:38:00,73.0,71.8,30.26,SW,214,0.0,0.0,96,0.00,,,0.00,0,Wunderground v.1.15,2013-07-06 09:38:00,
2013-07-06 05:43:00,72.9,71.7,30.26,SW,214,0.0,0.0,96,0.00,,,0.00,0,Wunderground v.1.15,2013-07-06 09:43:00,
2013-07-06 05:48:00,72.8,71.6,30.27,SW,214,0.0,0.0,96,0.00,,,0.00,0,Wunderground v.1.15,2013-07-06 09:48:00,
2013-07-06 05:53:00,72.7,71.5,30.27,SW,214,0.0,0.0,96,0.00,,,0.00,0,Wunderground v.1.15,2013-07-06 09:53:00,
2013-07-06 05:58:00,72.5,71.3,30.27,SW,214,0.0,0.0,96,0.00,,,0.00,0,Wunderground v.1.15,2013-07-06 09:58:00,
2013-07-06 06:03:00,72.3,71.1,30.28,SW,214,0.0,0.0,96,0.00,,,0.00,5,Wunderground v.1.15,2013-07-06 10:03:00,
2013-07-06 06:08:00,72.0,70.8,30.28,SW,214,0.0,0.0,96,0.00,,,0.00,9,Wunderground v.1.15,2013-07-06 10:08:00,
2013-07-06 06:13:00,72.0,71.1,30.28,SW,214,0.0,0.0,97,0.00,,,0.00,12,Wunderground v.1.15,2013-07-06 10:13:00,
2013-07-06 06:18:00,71.9,71.0,30.28,SW,214,0.0,0.0,97,0.00,,,0.00,18,Wunderground v.1.15,2013-07-06 10:18:00,
2013-07-06 06:23:00,71.9,71.0,30.28,SW,214,0.0,0.0,97,0.00,,,0.00,26,Wunderground v.1.15,2013-07-06 10:23:00,
2013-07-06 06:28:00,71.9,71.0,30.28,SW,214,0.0,0.0,97,0.00,,,0.00,40,Wunderground v.1.15,2013-07-06 10:28:00,
2013-07-06 06:33:00,71.9,71.0,30.28,SW,214,0.0,0.0,97,0.00,,,0.00,74,Wunderground v.1.15,2013-07-06 10:33:00,
2013-07-06 06:39:00,72.0,71.1,30.28,SW,214,0.0,0.0,97,0.00,,,0.00,39,Wunderground v.1.15,2013-07-06 10:39:00,
2013-07-06 06:44:00,72.0,71.1,30.28,SW,214,0.0,0.0,97,0.00,,,0.00,81,Wunderground v.1.15,2013-07-06 10:44:00,
2013-07-06 06:49:00,72.2,71.3,30.29,SW,214,0.0,0.0,97,0.00,,,0.00,97,Wunderground v.1.15,2013-07-06 10:49:00,
2013-07-06 06:54:00,72.4,71.5,30.29,SW,214,0.0,0.0,97,0.00,,,0.00,123,Wunderground v.1.15,2013-07-06 10:54:00,
2013-07-06 06:59:00,72.8,71.9,30.29,SW,214,0.0,0.0,97,0.00,,,0.00,137,Wunderground v.1.15,2013-07-06 10:59:00,
2013-07-06 07:04:00,73.3,72.4,30.29,SW,214,0.0,0.0,97,0.00,,,0.00,155,Wunderground v.1.15,2013-07-06 11:04:00,
2013-07-06 07:09:00,73.7,72.8,30.29,SW,214,0.0,1.0,97,0.00,,,0.00,155,Wunderground v.1.15,2013-07-06 11:09:00,
2013-07-06 07:14:00,74.4,73.5,30.29,SW,214,0.0,1.0,97,0.00,,,0.00,109,Wunderground v.1.15,2013-07-06 11:14:00,
2013-07-06 07:19:00,75.0,73.5,30.29,SSW,213,1.0,3.0,95,0.00,,,0.00,160,Wunderground v.1.15,2013-07-06 11:19:00,
2013-07-06 07:24:00,75.2,73.4,30.29,SSW,200,1.0,5.0,94,0.00,,,0.00,107,Wunderground v.1.15,2013-07-06 11:24:00,
2013-07-06 07:29:00,75.2,73.4,30.29,SW,234,1.0,5.0,94,0.00,,,0.00,107,Wunderground v.1.15,2013-07-06 11:29:00,
2013-07-06 07:34:00,75.1,73.3,30.29,South,182,2.0,4.0,94,0.00,,,0.00,125,Wunderground v.1.15,2013-07-06 11:34:00,
2013-07-06 07:39:00,75.1,73.3,30.29,SW,235,0.0,4.0,94,0.00,,,0.00,169,Wunderground v.1.15,2013-07-06 11:39:00,
2013-07-06 07:44:00,75.5,73.7,30.29,South,185,3.0,3.0,94,0.00,,,0.00,137,Wunderground v.1.15,2013-07-06 11:44:00,
2013-07-06 07:49:00,75.8,73.9,30.29,WSW,242,1.0,3.0,94,0.00,,,0.00,107,Wunderground v.1.15,2013-07-06 11:49:00,
2013-07-06 07:54:00,75.7,73.2,30.29,South,180,4.0,8.0,92,0.00,,,0.00,123,Wunderground v.1.15,2013-07-06 11:54:00,
2013-07-06 07:59:00,75.5,73.0,30.30,South,187,1.0,8.0,92,0.00,,,0.00,156,Wunderground v.1.15,2013-07-06 11:59:00,
2013-07-06 08:04:00,75.8,73.3,30.30,South,180,1.0,6.0,92,0.00,,,0.00,153,Wunderground v.1.15,2013-07-06 12:04:00,
2013-07-06 08:09:00,75.9,73.4,30.30,South,178,1.0,6.0,92,0.00,,,0.00,144,Wunderground v.1.15,2013-07-06 12:09:00,
2013-07-06 08:14:00,76.1,73.3,30.30,SSW,204,0.0,4.0,91,0.00,,,0.00,190,Wunderground v.1.15,2013-07-06 12:14:00,
2013-07-06 08:19:00,76.2,72.7,30.30,WSW,244,1.0,5.0,89,0.00,,,0.00,227,Wunderground v.1.15,2013-07-06 12:19:00,
2013-07-06 08:24:00,76.4,72.9,30.30,NW,309,4.0,5.0,89,0.00,,,0.00,186,Wunderground v.1.15,2013-07-06 12:24:00,
2013-07-06 08:29:00,76.5,73.3,30.30,West,266,0.0,5.0,90,0.00,,,0.00,186,Wunderground v.1.15,2013-07-06 12:29:00,
2013-07-06 08:34:00,76.5,73.0,30.30,SW,226,0.0,4.0,89,0.00,,,0.00,190,Wunderground v.1.15,2013-07-06 12:34:00,
2013-07-06 08:39:00,76.6,72.4,30.30,SSW,199,1.0,5.0,87,0.00,,,0.00,178,Wunderground v.1.15,2013-07-06 12:39:00,
2013-07-06 08:44:00,76.5,72.3,30.30,WSW,238,3.0,7.0,87,0.00,,,0.00,193,Wunderground v.1.15,2013-07-06 12:44:00,
2013-07-06 08:49:00,76.6,72.4,30.30,WNW,288,2.0,10.0,87,0.00,,,0.00,236,Wunderground v.1.15,2013-07-06 12:49:00,
2013-07-06 08:54:00,76.7,72.5,30.31,West,281,2.0,8.0,87,0.00,,,0.00,230,Wunderground v.1.15,2013-07-06 12:54:00,
2013-07-06 08:59:00,76.7,72.2,30.31,South,180,5.0,9.0,86,0.00,,,0.00,239,Wunderground v.1.15,2013-07-06 12:59:00,
2013-07-06 09:04:00,76.7,72.5,30.31,SW,234,0.0,7.0,87,0.00,,,0.00,218,Wunderground v.1.15,2013-07-06 13:04:00,
2013-07-06 09:09:00,76.8,72.3,30.30,SW,221,5.0,7.0,86,0.00,,,0.00,251,Wunderground v.1.15,2013-07-06 13:09:00,
2013-07-06 09:14:00,77.1,72.6,30.30,WSW,253,2.0,7.0,86,0.00,,,0.00,332,Wunderground v.1.15,2013-07-06 13:14:00,
2013-07-06 09:19:00,77.5,72.6,30.30,SSW,209,3.0,7.0,85,0.00,,,0.00,325,Wunderground v.1.15,2013-07-06 13:19:00,
2013-07-06 09:24:00,77.8,72.6,30.30,SSW,196,2.0,4.0,84,0.00,,,0.00,417,Wunderground v.1.15,2013-07-06 13:24:00,
2013-07-06 09:29:00,78.6,72.3,30.30,SW,232,3.0,7.0,81,0.00,,,0.00,631,Wunderground v.1.15,2013-07-06 13:29:00,
2013-07-06 09:34:00,79.6,73.3,30.30,South,190,4.0,7.0,81,0.00,,,0.00,652,Wunderground v.1.15,2013-07-06 13:34:00,
2013-07-06 09:39:00,80.0,73.3,30.30,SSE,155,2.0,7.0,80,0.00,,,0.00,740,Wunderground v.1.15,2013-07-06 13:39:00,
2013-07-06 09:44:00,79.7,72.6,30.30,WSW,237,1.0,9.0,79,0.00,,,0.00,846,Wunderground v.1.15,2013-07-06 13:44:00,
2013-07-06 09:49:00,79.7,72.6,30.30,South,176,6.0,9.0,79,0.00,,,0.00,751,Wunderground v.1.15,2013-07-06 13:49:00,
2013-07-06 09:54:00,79.8,72.3,30.30,WSW,254,7.0,8.0,78,0.00,,,0.00,789,Wunderground v.1.15,2013-07-06 13:54:00,
2013-07-06 09:59:00,79.1,72.0,30.30,South,186,5.0,11.0,79,0.00,,,0.00,204,Wunderground v.1.15,2013-07-06 13:59:00,
2013-07-06 10:04:00,79.0,71.9,30.30,SW,219,1.0,6.0,79,0.00,,,0.00,772,Wunderground v.1.15,2013-07-06 14:04:00,
2013-07-06 10:09:00,80.2,72.3,30.30,WSW,240,6.0,6.0,77,0.00,,,0.00,768,Wunderground v.1.15,2013-07-06 14:09:00,
2013-07-06 10:14:00,80.5,71.8,30.30,SSW,207,1.0,9.0,75,0.00,,,0.00,807,Wunderground v.1.15,2013-07-06 14:14:00,
2013-07-06 10:19:00,81.4,72.7,30.30,South,175,4.0,9.0,75,0.00,,,0.00,773,Wunderground v.1.15,2013-07-06 14:19:00,
2013-07-06 10:24:00,81.5,72.4,30.30,SW,233,3.0,8.0,74,0.00,,,0.00,800,Wunderground v.1.15,2013-07-06 14:24:00,
2013-07-06 10:29:00,81.1,72.4,30.30,West,275,2.0,10.0,75,0.00,,,0.00,810,Wunderground v.1.15,2013-07-06 14:29:00,
2013-07-06 10:34:00,81.2,71.7,30.30,SSE,153,1.0,9.0,73,0.00,,,0.00,146,Wunderground v.1.15,2013-07-06 14:34:00,
2013-07-06 10:39:00,81.1,71.6,30.30,South,176,1.0,9.0,73,0.00,,,0.00,865,Wunderground v.1.15,2013-07-06 14:39:00,
2013-07-06 10:44:00,82.2,72.7,30.30,SSE,157,3.0,6.0,73,0.00,,,0.00,895,Wunderground v.1.15,2013-07-06 14:44:00,
2013-07-06 10:49:00,82.4,73.3,30.30,SW,234,6.0,7.0,74,0.00,,,0.00,939,Wunderground v.1.15,2013-07-06 14:49:00,
2013-07-06 10:54:00,82.8,72.8,30.30,South,189,6.0,6.0,72,0.00,,,0.00,946,Wunderground v.1.15,2013-07-06 14:54:00,
2013-07-06 10:59:00,82.8,72.4,30.30,SW,232,4.0,8.0,71,0.00,,,0.00,907,Wunderground v.1.15,2013-07-06 14:59:00,
2013-07-06 11:04:00,82.8,72.4,30.30,SSW,213,2.0,8.0,71,0.00,,,0.00,912,Wunderground v.1.15,2013-07-06 15:04:00,
2013-07-06 11:09:00,82.7,71.9,30.30,SSW,203,3.0,8.0,70,0.00,,,0.00,916,Wunderground v.1.15,2013-07-06 15:09:00,
2013-07-06 11:14:00,83.0,73.0,30.30,SSE,168,2.0,7.0,72,0.00,,,0.00,947,Wunderground v.1.15,2013-07-06 15:14:00,
2013-07-06 11:19:00,83.2,72.8,30.30,SSW,196,7.0,9.0,71,0.00,,,0.00,986,Wunderground v.1.15,2013-07-06 15:19:00,
2013-07-06 11:24:00,82.7,71.9,30.30,SW,223,2.0,7.0,70,0.00,,,0.00,969,Wunderground v.1.15,2013-07-06 15:24:00,
2013-07-06 11:29:00,82.2,72.7,30.30,WNW,285,0.0,7.0,73,0.00,,,0.00,958,Wunderground v.1.15,2013-07-06 15:29:00,
2013-07-06 11:34:00,83.5,72.7,30.30,SSW,207,2.0,5.0,70,0.00,,,0.00,1013,Wunderground v.1.15,2013-07-06 15:34:00,
2013-07-06 11:39:00,83.8,73.0,30.30,SSE,164,4.0,4.0,70,0.00,,,0.00,969,Wunderground v.1.15,2013-07-06 15:39:00,
2013-07-06 11:44:00,84.4,73.1,30.30,South,173,5.0,7.0,69,0.00,,,0.00,986,Wunderground v.1.15,2013-07-06 15:44:00,
2013-07-06 11:49:00,83.9,73.5,30.30,South,172,2.0,4.0,71,0.00,,,0.00,1014,Wunderground v.1.15,2013-07-06 15:49:00,
2013-07-06 11:54:00,84.0,73.2,30.30,SE,143,3.0,6.0,70,0.00,,,0.00,1002,Wunderground v.1.15,2013-07-06 15:54:00,
2013-07-06 12:00:00,83.5,72.3,30.29,SSE,155,1.0,3.0,69,0.00,,,0.00,954,Wunderground v.1.15,2013-07-06 16:00:00,
2013-07-06 12:05:00,83.6,71.5,30.29,WSW,238,5.0,6.0,67,0.00,,,0.00,956,Wunderground v.1.15,2013-07-06 16:05:00,
2013-07-06 12:10:00,84.1,72.4,30.29,SSW,194,3.0,5.0,68,0.00,,,0.00,958,Wunderground v.1.15,2013-07-06 16:10:00,
2013-07-06 12:15:00,83.1,71.4,30.29,SW,229,3.0,6.0,68,0.00,,,0.00,241,Wunderground v.1.15,2013-07-06 16:15:00,
2013-07-06 12:21:00,83.6,73.2,30.29,WSW,244,1.0,4.0,71,0.00,,,0.00,1009,Wunderground v.1.15,2013-07-06 16:21:00,
2013-07-06 12:26:00,83.7,72.0,30.29,SW,221,1.0,6.0,68,0.00,,,0.00,190,Wunderground v.1.15,2013-07-06 16:26:00,
2013-07-06 12:31:00,84.1,72.8,30.29,West,262,0.0,8.0,69,0.00,,,0.00,965,Wunderground v.1.15,2013-07-06 16:31:00,
2013-07-06 12:36:00,84.7,72.1,30.28,SSW,212,1.0,9.0,66,0.00,,,0.00,951,Wunderground v.1.15,2013-07-06 16:36:00,
2013-07-06 12:41:00,84.7,70.2,30.28,South,184,6.0,8.0,62,0.00,,,0.00,949,Wunderground v.1.15,2013-07-06 16:41:00,
2013-07-06 12:46:00,84.4,70.4,30.28,SSW,197,2.0,8.0,63,0.00,,,0.00,951,Wunderground v.1.15,2013-07-06 16:46:00,
2013-07-06 12:51:00,84.9,72.3,30.28,NW,306,3.0,4.0,66,0.00,,,0.00,958,Wunderground v.1.15,2013-07-06 16:51:00,
2013-07-06 12:56:00,85.4,71.4,30.28,SW,226,1.0,6.0,63,0.00,,,0.00,1020,Wunderground v.1.15,2013-07-06 16:56:00,
2013-07-06 13:02:00,84.3,72.1,30.28,WSW,240,3.0,4.0,67,0.00,,,0.00,1016,Wunderground v.1.15,2013-07-06 17:02:00,
2013-07-06 13:08:00,84.4,73.1,30.28,SSW,212,0.0,6.0,69,0.00,,,0.00,958,Wunderground v.1.15,2013-07-06 17:08:00,
2013-07-06 13:13:00,85.6,72.0,30.27,SSW,207,5.0,5.0,64,0.00,,,0.00,963,Wunderground v.1.15,2013-07-06 17:13:00,
2013-07-06 13:18:00,85.5,71.9,30.27,South,171,2.0,6.0,64,0.00,,,0.00,886,Wunderground v.1.15,2013-07-06 17:18:00,
2013-07-06 13:23:00,85.2,71.6,30.27,NW,309,1.0,6.0,64,0.00,,,0.00,997,Wunderground v.1.15,2013-07-06 17:23:00,
2013-07-06 13:28:00,85.2,72.1,30.26,West,259,1.0,6.0,65,0.00,,,0.00,253,Wunderground v.1.15,2013-07-06 17:28:00,
2013-07-06 13:33:00,85.8,73.1,30.26,WNW,287,4.0,6.0,66,0.00,,,0.00,958,Wunderground v.1.15,2013-07-06 17:33:00,
2013-07-06 13:39:00,86.2,73.5,30.26,South,184,1.0,6.0,66,0.00,,,0.00,983,Wunderground v.1.15,2013-07-06 17:39:00,
2013-07-06 13:44:00,86.5,74.2,30.26,NW,304,2.0,3.0,67,0.00,,,0.00,1011,Wunderground v.1.15,2013-07-06 17:44:00,
2013-07-06 13:50:00,85.7,71.2,30.25,SE,142,2.0,2.0,62,0.00,,,0.00,944,Wunderground v.1.15,2013-07-06 17:50:00,
2013-07-06 13:55:00,85.9,73.7,30.25,WSW,239,2.0,4.0,67,0.00,,,0.00,918,Wunderground v.1.15,2013-07-06 17:55:00,
2013-07-06 14:00:00,86.5,73.3,30.25,South,181,4.0,4.0,65,0.00,,,0.00,1011,Wunderground v.1.15,2013-07-06 18:00:00,
2013-07-06 14:05:00,86.5,72.9,30.25,WSW,244,2.0,5.0,64,0.00,,,0.00,424,Wunderground v.1.15,2013-07-06 18:05:00,
2013-07-06 14:11:00,86.0,71.0,30.25,South,184,0.0,3.0,61,0.00,,,0.00,960,Wunderground v.1.15,2013-07-06 18:11:00,
2013-07-06 14:16:00,86.5,71.9,30.25,SW,230,2.0,5.0,62,0.00,,,0.00,1048,Wunderground v.1.15,2013-07-06 18:16:00,
2013-07-06 14:22:00,85.7,72.1,30.24,SSW,202,2.0,4.0,64,0.00,,,0.00,239,Wunderground v.1.15,2013-07-06 18:22:00,
2013-07-06 14:27:00,86.2,74.0,30.24,South,169,5.0,5.0,67,0.00,,,0.00,993,Wunderground v.1.15,2013-07-06 18:27:00,
2013-07-06 14:32:00,86.7,72.6,30.24,SSW,194,2.0,6.0,63,0.00,,,0.00,898,Wunderground v.1.15,2013-07-06 18:32:00,
2013-07-06 14:38:00,86.8,72.7,30.24,SSE,157,5.0,6.0,63,0.00,,,0.00,932,Wunderground v.1.15,2013-07-06 18:38:00,
2013-07-06 14:43:00,86.6,72.0,30.24,South,182,1.0,4.0,62,0.00,,,0.00,877,Wunderground v.1.15,2013-07-06 18:43:00,
2013-07-06 14:48:00,86.8,74.1,30.23,SSW,212,1.0,4.0,66,0.00,,,0.00,896,Wunderground v.1.15,2013-07-06 18:48:00,
2013-07-06 14:53:00,86.8,71.7,30.23,SSW,194,4.0,6.0,61,0.00,,,0.00,893,Wunderground v.1.15,2013-07-06 18:53:00,
2013-07-06 14:58:00,86.5,72.9,30.23,South,178,0.0,6.0,64,0.00,,,0.00,981,Wunderground v.1.15,2013-07-06 18:58:00,
2013-07-06 15:04:00,86.5,72.4,30.23,SSE,167,5.0,8.0,63,0.00,,,0.00,343,Wunderground v.1.15,2013-07-06 19:04:00,
2013-07-06 15:09:00,87.1,73.0,30.23,SE,131,4.0,8.0,63,0.00,,,0.00,949,Wunderground v.1.15,2013-07-06 19:09:00,
2013-07-06 15:14:00,87.0,72.4,30.23,SSE,163,1.0,6.0,62,0.00,,,0.00,974,Wunderground v.1.15,2013-07-06 19:14:00,
2013-07-06 15:19:00,87.6,73.0,30.22,SSW,202,4.0,6.0,62,0.00,,,0.00,1020,Wunderground v.1.15,2013-07-06 19:19:00,
2013-07-06 15:24:00,87.3,73.2,30.22,South,172,3.0,7.0,63,0.00,,,0.00,311,Wunderground v.1.15,2013-07-06 19:24:00,
2013-07-06 15:29:00,85.8,72.7,30.23,SSW,197,2.0,7.0,65,0.00,,,0.00,413,Wunderground v.1.15,2013-07-06 19:29:00,
2013-07-06 15:34:00,85.5,73.7,30.22,SE,141,4.0,7.0,68,0.00,,,0.00,411,Wunderground v.1.15,2013-07-06 19:34:00,
2013-07-06 15:39:00,85.5,73.3,30.22,South,183,2.0,7.0,67,0.00,,,0.00,410,Wunderground v.1.15,2013-07-06 19:39:00,
2013-07-06 15:45:00,85.3,74.0,30.22,SSW,194,1.0,3.0,69,0.00,,,0.00,408,Wunderground v.1.15,2013-07-06 19:45:00,
2013-07-06 15:50:00,85.4,73.6,30.22,South,191,3.0,4.0,68,0.00,,,0.00,390,Wunderground v.1.15,2013-07-06 19:50:00,
2013-07-06 15:55:00,85.0,74.1,30.22,South,183,1.0,4.0,70,0.00,,,0.00,439,Wunderground v.1.15,2013-07-06 19:55:00,
2013-07-06 16:02:00,85.9,73.7,30.21,SSE,151,4.0,4.0,67,0.00,,,0.00,322,Wunderground v.1.15,2013-07-06 20:02:00,
2013-07-06 16:08:00,86.1,73.9,30.21,SSW,196,2.0,4.0,67,0.00,,,0.00,329,Wunderground v.1.15,2013-07-06 20:08:00,
2013-07-06 16:13:00,84.8,74.8,30.21,SW,223,1.0,3.0,72,0.00,,,0.00,367,Wunderground v.1.15,2013-07-06 20:13:00,
2013-07-06 16:18:00,84.7,73.8,30.21,SSW,194,1.0,6.0,70,0.00,,,0.00,359,Wunderground v.1.15,2013-07-06 20:18:00,
2013-07-06 16:23:00,84.3,73.0,30.21,SSW,196,4.0,5.0,69,0.00,,,0.00,274,Wunderground v.1.15,2013-07-06 20:23:00,
2013-07-06 16:28:00,84.2,74.2,30.21,South,187,2.0,5.0,72,0.00,,,0.00,302,Wunderground v.1.15,2013-07-06 20:28:00,
2013-07-06 16:33:00,84.1,74.5,30.20,SSW,195,1.0,3.0,73,0.00,,,0.00,265,Wunderground v.1.15,2013-07-06 20:33:00,
2013-07-06 16:38:00,84.7,74.7,30.20,SSW,194,1.0,5.0,72,0.00,,,0.00,749,Wunderground v.1.15,2013-07-06 20:38:00,
2013-07-06 16:43:00,85.6,73.8,30.19,South,178,3.0,3.0,68,0.00,,,0.00,369,Wunderground v.1.15,2013-07-06 20:43:00,
2013-07-06 16:49:00,85.7,74.4,30.20,SSW,207,2.0,4.0,69,0.00,,,0.00,432,Wunderground v.1.15,2013-07-06 20:49:00,
2013-07-06 16:54:00,85.0,73.3,30.19,SSE,153,2.0,6.0,68,0.00,,,0.00,197,Wunderground v.1.15,2013-07-06 20:54:00,
2013-07-06 16:59:00,84.8,74.3,30.19,SSE,162,3.0,6.0,71,0.00,,,0.00,213,Wunderground v.1.15,2013-07-06 20:59:00,
2013-07-06 17:04:00,85.1,74.2,30.19,South,184,4.0,4.0,70,0.00,,,0.00,218,Wunderground v.1.15,2013-07-06 21:04:00,
2013-07-06 17:09:00,85.0,74.5,30.19,SSE,148,2.0,4.0,71,0.00,,,0.00,232,Wunderground v.1.15,2013-07-06 21:09:00,
2013-07-06 17:14:00,85.4,74.5,30.19,SSE,155,1.0,5.0,70,0.00,,,0.00,394,Wunderground v.1.15,2013-07-06 21:14:00,
2013-07-06 17:19:00,85.6,74.7,30.19,South,171,3.0,3.0,70,0.00,,,0.00,309,Wunderground v.1.15,2013-07-06 21:19:00,
2013-07-06 17:25:00,85.6,74.7,30.19,South,182,2.0,3.0,70,0.00,,,0.00,271,Wunderground v.1.15,2013-07-06 21:25:00,
2013-07-06 17:30:00,85.2,74.7,30.19,SSW,210,2.0,3.0,71,0.00,,,0.00,237,Wunderground v.1.15,2013-07-06 21:30:00,
2013-07-06 17:35:00,84.4,74.0,30.19,South,189,1.0,4.0,71,0.00,,,0.00,186,Wunderground v.1.15,2013-07-06 21:35:00,
2013-07-06 17:40:00,84.6,75.0,30.19,SSE,158,1.0,2.0,73,0.00,,,0.00,239,Wunderground v.1.15,2013-07-06 21:40:00,
2013-07-06 17:45:00,84.6,75.8,30.19,South,190,1.0,3.0,75,0.00,,,0.00,183,Wunderground v.1.15,2013-07-06 21:45:00,
2013-07-06 17:50:00,84.1,75.3,30.19,South,187,0.0,2.0,75,0.00,,,0.00,174,Wunderground v.1.15,2013-07-06 21:50:00,
2013-07-06 17:56:00,84.6,75.0,30.19,South,190,3.0,4.0,73,0.00,,,0.00,427,Wunderground v.1.15,2013-07-06 21:56:00,
2013-07-06 18:02:00,85.1,75.9,30.19,SSW,207,2.0,2.0,74,0.00,,,0.00,401,Wunderground v.1.15,2013-07-06 22:02:00,
2013-07-06 18:07:00,85.4,74.9,30.19,South,189,0.0,6.0,71,0.00,,,0.00,118,Wunderground v.1.15,2013-07-06 22:07:00,
2013-07-06 18:12:00,84.3,74.7,30.19,SSW,198,1.0,3.0,73,0.00,,,0.00,97,Wunderground v.1.15,2013-07-06 22:12:00,
2013-07-06 18:17:00,83.2,74.4,30.18,SSW,200,0.0,5.0,75,0.00,,,0.00,155,Wunderground v.1.15,2013-07-06 22:17:00,
2013-07-06 18:22:00,82.9,74.6,30.18,SSW,209,1.0,3.0,76,0.00,,,0.00,146,Wunderground v.1.15,2013-07-06 22:22:00,
2013-07-06 18:27:00,82.9,74.6,30.18,South,178,1.0,4.0,76,0.00,,,0.00,155,Wunderground v.1.15,2013-07-06 22:27:00,
2013-07-06 18:33:00,83.3,74.9,30.18,SSW,202,3.0,3.0,76,0.00,,,0.00,176,Wunderground v.1.15,2013-07-06 22:33:00,
2013-07-06 18:38:00,83.5,75.1,30.18,SSW,197,3.0,5.0,76,0.00,,,0.00,167,Wunderground v.1.15,2013-07-06 22:38:00,
2013-07-06 18:43:00,83.3,74.5,30.18,SSW,202,3.0,3.0,75,0.00,,,0.00,167,Wunderground v.1.15,2013-07-06 22:43:00,
2013-07-06 18:48:00,83.4,75.0,30.18,SSW,205,3.0,4.0,76,0.00,,,0.00,163,Wunderground v.1.15,2013-07-06 22:48:00,
2013-07-06 18:53:00,83.5,74.7,30.18,South,181,4.0,4.0,75,0.00,,,0.00,169,Wunderground v.1.15,2013-07-06 22:53:00,
2013-07-06 18:58:00,83.3,75.3,30.18,SSW,194,3.0,4.0,77,0.00,,,0.00,114,Wunderground v.1.15,2013-07-06 22:58:00,
2013-07-06 19:03:00,83.1,74.7,30.18,SW,219,2.0,3.0,76,0.00,,,0.00,104,Wunderground v.1.15,2013-07-06 23:03:00,
2013-07-06 19:08:00,82.8,75.2,30.18,SW,225,1.0,3.0,78,0.00,,,0.00,111,Wunderground v.1.15,2013-07-06 23:08:00,
2013-07-06 19:13:00,82.8,74.8,30.18,SSW,196,1.0,3.0,77,0.00,,,0.00,169,Wunderground v.1.15,2013-07-06 23:13:00,
2013-07-06 19:19:00,83.0,75.8,30.18,SSW,202,2.0,3.0,79,0.00,,,0.00,151,Wunderground v.1.15,2013-07-06 23:19:00,
2013-07-06 19:24:00,83.3,75.7,30.18,South,175,1.0,3.0,78,0.00,,,0.00,127,Wunderground v.1.15,2013-07-06 23:24:00,
2013-07-06 19:29:00,83.4,75.4,30.18,SSW,207,3.0,3.0,77,0.00,,,0.00,105,Wunderground v.1.15,2013-07-06 23:29:00,
2013-07-06 19:34:00,83.2,74.8,30.18,SW,230,0.0,5.0,76,0.00,,,0.00,70,Wunderground v.1.15,2013-07-06 23:34:00,
2013-07-06 19:39:00,83.5,74.7,30.18,SSW,194,1.0,5.0,75,0.00,,,0.00,47,Wunderground v.1.15,2013-07-06 23:39:00,
2013-07-06 19:44:00,83.6,75.2,30.18,SSE,163,0.0,4.0,76,0.00,,,0.00,32,Wunderground v.1.15,2013-07-06 23:44:00,
2013-07-06 19:50:00,83.0,75.0,30.18,SSE,165,0.0,1.0,77,0.00,,,0.00,28,Wunderground v.1.15,2013-07-06 23:50:00,
2013-07-06 19:55:00,82.0,74.8,30.18,SSE,165,0.0,1.0,79,0.00,,,0.00,25,Wunderground v.1.15,2013-07-06 23:55:00,
2013-07-06 20:02:00,81.4,75.0,30.18,SSE,165,0.0,0.0,81,0.00,,,0.00,21,Wunderground v.1.15,2013-07-07 00:02:00,
2013-07-06 20:08:00,81.0,75.0,30.18,South,188,0.0,2.0,82,0.00,,,0.00,18,Wunderground v.1.15,2013-07-07 00:08:00,
2013-07-06 20:13:00,80.8,74.4,30.18,South,188,1.0,1.0,81,0.00,,,0.00,16,Wunderground v.1.15,2013-07-07 00:13:00,
2013-07-06 20:19:00,80.4,74.4,30.18,South,188,0.0,1.0,82,0.00,,,0.00,12,Wunderground v.1.15,2013-07-07 00:19:00,
2013-07-06 20:24:00,79.9,75.0,30.18,South,188,0.0,1.0,85,0.00,,,0.00,7,Wunderground v.1.15,2013-07-07 00:24:00,
2013-07-06 20:29:00,79.2,74.6,30.18,South,188,0.0,1.0,86,0.00,,,0.00,5,Wunderground v.1.15,2013-07-07 00:29:00,
2013-07-06 20:35:00,78.5,74.6,30.19,South,188,0.0,0.0,88,0.00,,,0.00,0,Wunderground v.1.15,2013-07-07 00:35:00,
2013-07-06 20:40:00,78.0,74.5,30.19,South,188,0.0,0.0,89,0.00,,,0.00,0,Wunderground v.1.15,2013-07-07 00:40:00,
2013-07-06 20:45:00,77.9,74.4,30.19,South,188,0.0,0.0,89,0.00,,,0.00,0,Wunderground v.1.15,2013-07-07 00:45:00,
2013-07-06 20:50:00,77.8,74.6,30.19,South,188,0.0,0.0,90,0.00,,,0.00,0,Wunderground v.1.15,2013-07-07 00:50:00,
2013-07-06 20:55:00,77.4,74.6,30.19,South,188,0.0,0.0,91,0.00,,,0.00,0,Wunderground v.1.15,2013-07-07 00:55:00,
2013-07-06 21:00:00,76.7,74.2,30.19,South,188,0.0,0.0,92,0.00,,,0.00,0,Wunderground v.1.15,2013-07-07 01:00:00,
2013-07-06 21:05:00,76.2,73.7,30.19,South,188,0.0,0.0,92,0.00,,,0.00,0,Wunderground v.1.15,2013-07-07 01:05:00,
2013-07-06 21:11:00,76.4,74.2,30.19,South,188,0.0,0.0,93,0.00,,,0.00,0,Wunderground v.1.15,2013-07-07 01:11:00,
2013-07-06 21:16:00,76.6,74.4,30.19,South,188,0.0,0.0,93,0.00,,,0.00,0,Wunderground v.1.15,2013-07-07 01:16:00,
2013-07-06 21:22:00,76.6,74.4,30.19,South,188,0.0,0.0,93,0.00,,,0.00,0,Wunderground v.1.15,2013-07-07 01:22:00,
2013-07-06 21:27:00,76.6,74.4,30.20,South,188,0.0,0.0,93,0.00,,,0.00,0,Wunderground v.1.15,2013-07-07 01:27:00,
2013-07-06 21:32:00,76.4,74.2,30.20,South,188,0.0,0.0,93,0.00,,,0.00,0,Wunderground v.1.15,2013-07-07 01:32:00,
2013-07-06 21:37:00,76.1,73.9,30.21,South,188,0.0,0.0,93,0.00,,,0.00,0,Wunderground v.1.15,2013-07-07 01:37:00,
2013-07-06 21:42:00,76.2,74.3,30.21,South,188,0.0,0.0,94,0.00,,,0.00,0,Wunderground v.1.15,2013-07-07 01:42:00,
2013-07-06 21:47:00,76.6,74.4,30.21,South,188,0.0,0.0,93,0.00,,,0.00,0,Wunderground v.1.15,2013-07-07 01:47:00,
2013-07-06 21:52:00,76.9,74.7,30.22,South,188,1.0,2.0,93,0.00,,,0.00,0,Wunderground v.1.15,2013-07-07 01:52:00,
2013-07-06 21:58:00,77.6,75.1,30.22,SSE,166,1.0,2.0,92,0.00,,,0.00,0,Wunderground v.1.15,2013-07-07 01:58:00,
2013-07-06 22:03:00,78.1,74.9,30.22,South,182,0.0,1.0,90,0.00,,,0.00,0,Wunderground v.1.15,2013-07-07 02:03:00,
2013-07-06 22:08:00,78.1,74.9,30.22,South,178,0.0,2.0,90,0.00,,,0.00,0,Wunderground v.1.15,2013-07-07 02:08:00,
2013-07-06 22:13:00,78.4,74.9,30.22,South,189,1.0,4.0,89,0.00,,,0.00,0,Wunderground v.1.15,2013-07-07 02:13:00,
2013-07-06 22:18:00,78.5,74.6,30.23,SSW,213,2.0,4.0,88,0.00,,,0.00,0,Wunderground v.1.15,2013-07-07 02:18:00,
2013-07-06 22:23:00,78.6,74.4,30.23,South,191,1.0,7.0,87,0.00,,,0.00,0,Wunderground v.1.15,2013-07-07 02:23:00,
2013-07-06 22:29:00,78.6,74.4,30.23,SSW,205,3.0,7.0,87,0.00,,,0.00,0,Wunderground v.1.15,2013-07-07 02:29:00,
2013-07-06 22:34:00,78.7,74.2,30.23,SW,221,2.0,5.0,86,0.00,,,0.00,0,Wunderground v.1.15,2013-07-07 02:34:00,
2013-07-06 22:39:00,78.5,74.0,30.23,SSW,203,1.0,2.0,86,0.00,,,0.00,0,Wunderground v.1.15,2013-07-07 02:39:00,
2013-07-06 22:45:00,78.4,73.9,30.23,SSW,203,0.0,2.0,86,0.00,,,0.00,0,Wunderground v.1.15,2013-07-07 02:45:00,
2013-07-06 22:50:00,78.4,73.9,30.23,South,191,0.0,1.0,86,0.00,,,0.00,0,Wunderground v.1.15,2013-07-07 02:50:00,
2013-07-06 22:55:00,78.4,73.9,30.23,SSW,194,2.0,5.0,86,0.00,,,0.00,0,Wunderground v.1.15,2013-07-07 02:55:00,
2013-07-06 23:00:00,78.1,73.6,30.23,SSW,208,2.0,2.0,86,0.00,,,0.00,0,Wunderground v.1.15,2013-07-07 03:00:00,
2013-07-06 23:05:00,78.0,73.8,30.23,SW,218,1.0,6.0,87,0.00,,,0.00,0,Wunderground v.1.15,2013-07-07 03:05:00,
2013-07-06 23:11:00,78.0,73.8,30.23,SSW,211,0.0,2.0,87,0.00,,,0.00,0,Wunderground v.1.15,2013-07-07 03:11:00,
2013-07-06 23:16:00,78.0,73.5,30.23,SSW,200,0.0,4.0,86,0.00,,,0.00,0,Wunderground v.1.15,2013-07-07 03:16:00,
2013-07-06 23:21:00,77.9,73.4,30.23,SSW,206,1.0,3.0,86,0.00,,,0.00,0,Wunderground v.1.15,2013-07-07 03:21:00,
2013-07-06 23:27:00,77.7,73.5,30.23,SSW,205,2.0,3.0,87,0.00,,,0.00,0,Wunderground v.1.15,2013-07-07 03:27:00,
2013-07-06 23:32:00,77.6,73.4,30.23,South,191,2.0,4.0,87,0.00,,,0.00,0,Wunderground v.1.15,2013-07-07 03:32:00,
2013-07-06 23:37:00,77.4,73.2,30.23,SSW,204,2.0,6.0,87,0.00,,,0.00,0,Wunderground v.1.15,2013-07-07 03:37:00,
2013-07-06 23:43:00,77.3,73.5,30.23,SSW,201,1.0,3.0,88,0.00,,,0.00,0,Wunderground v.1.15,2013-07-07 03:43:00,
2013-07-06 23:48:00,77.3,73.5,30.23,SSW,202,3.0,4.0,88,0.00,,,0.00,0,Wunderground v.1.15,2013-07-07 03:48:00,
2013-07-06 23:53:00,77.2,73.4,30.23,SSW,202,1.0,3.0,88,0.00,,,0.00,0,Wunderground v.1.15,2013-07-07 03:53:00,
2013-07-06 23:59:00,77.2,73.4,30.23,South,191,1.0,5.0,88,0.00,,,0.00,0,Wunderground v.1.15,2013-07-07 03:59:00,